Golovin, AK

5:05 AM AKDT on March 24, 2017 (GMT -0800)
Golovin

Weather History for PAGL - January, 2014

Change the Weather History Date:

Thursday, January 23, 2014

  Actual Average Record
Temperature  
Mean Temperature 36 °F -  
Max Temperature 39 °F - - ()
Min Temperature 32 °F - - ()
Degree Days  
Heating Degree Days 30    
Moisture  
Dew Point 33 °F    
Average Humidity 89    
Maximum Humidity 93    
Minimum Humidity 81    
Precipitation  
Precipitation 0.00 in - - ()
Sea Level Pressure  
Sea Level Pressure 29.38 in    
Wind  
Wind Speed 18 mph (East)    
Max Wind Speed 25 mph    
Max Gust Speed 32 mph    
Visibility 10 miles    
Events      
Averages and records for this station are not official NWS values.
T = Trace of Precipitation, MM = Missing Value Source: NWS Daily Summary

Daily Weather History Graph

Daily Weather History Graph

Search for Another Location

Airport or City:

Trip Planner

Search our weather history database for the weather conditions in past years. The results will help you decide how hot, cold, wet, or windy it might be!

Date:

Astronomy

Jan. 23, 2014 Rise Set
Actual Time 11:01 AM AKST 5:07 PM AKST
Civil Twilight 9:58 AM AKST 6:10 PM AKST
Nautical Twilight 8:55 AM AKST 7:13 PM AKST
Astronomical Twilight 7:58 AM AKST 8:10 PM AKST
Moon 2:41 AM AKST (1/23) 11:45 AM AKST (1/23)
Length of Visible Light 8h 11m
Length of Day
6h 05m
Waning Gibbous, 54% of the Moon is Illuminated
Jan 23
Waning Gibbous
Jan 23
Last Quarter
Jan 30
New
Feb 6
First Quarter
Feb 14
Full

Hourly Weather History & Observations

Time (AKST) Temp. Windchill Dew Point Humidity Pressure Visibility Wind Dir Wind Speed Gust Speed Precip Events Conditions
12:16 AM 32.0 °F 18.9 °F 28.4 °F 87% 29.31 in 10.0 mi ENE 24.2 mph 32.2 mph N/A   Overcast
12:36 AM 32.0 °F 18.6 °F 28.4 °F 87% 29.31 in 10.0 mi ENE 25.3 mph 31.1 mph N/A   Overcast
12:56 AM 32.0 °F 18.6 °F 28.4 °F 87% 29.31 in 10.0 mi ENE 25.3 mph 29.9 mph N/A   Overcast
1:16 AM 33.8 °F 21.3 °F 28.4 °F 81% 29.31 in 10.0 mi ENE 24.2 mph 28.8 mph N/A   Overcast
1:36 AM 33.8 °F 21.6 °F 30.2 °F 87% 29.31 in 10.0 mi ENE 23.0 mph 27.6 mph N/A   Overcast
1:56 AM 33.8 °F 22.2 °F 30.2 °F 87% 29.32 in 10.0 mi East 20.7 mph - N/A   Overcast
2:16 AM 33.8 °F 21.9 °F 30.2 °F 87% 29.32 in 10.0 mi East 21.9 mph - N/A   Overcast
2:36 AM 33.8 °F 21.6 °F 30.2 °F 87% 29.31 in 10.0 mi East 23.0 mph - N/A   Overcast
2:56 AM 33.8 °F 21.3 °F 30.2 °F 87% 29.31 in 10.0 mi East 24.2 mph 28.8 mph N/A   Overcast
3:16 AM 33.8 °F 22.5 °F 30.2 °F 87% 29.32 in 10.0 mi East 19.6 mph 26.5 mph N/A   Overcast
3:36 AM 33.8 °F 23.2 °F 30.2 °F 87% 29.31 in 10.0 mi East 17.3 mph 26.5 mph N/A   Overcast
3:56 AM 33.8 °F 23.2 °F 30.2 °F 87% 29.31 in 10.0 mi East 17.3 mph - N/A   Overcast
4:16 AM 33.8 °F 22.8 °F 32.0 °F 93% 29.31 in 10.0 mi East 18.4 mph - N/A   Overcast
4:36 AM 35.6 °F 25.5 °F 32.0 °F 87% 29.31 in 10.0 mi East 17.3 mph - N/A   Mostly Cloudy
4:56 AM 35.6 °F 25.5 °F 32.0 °F 87% 29.30 in 10.0 mi East 17.3 mph - N/A   Overcast
5:16 AM 35.6 °F 25.9 °F 32.0 °F 87% 29.31 in 10.0 mi East 16.1 mph - N/A   Overcast
5:36 AM 35.6 °F 26.2 °F 32.0 °F 87% 29.31 in 10.0 mi ESE 15.0 mph - N/A   Overcast
5:56 AM 35.6 °F 26.2 °F 33.8 °F 93% 29.31 in 10.0 mi East 15.0 mph - N/A   Overcast
6:16 AM 35.6 °F 27.1 °F 33.8 °F 93% 29.31 in 10.0 mi ESE 12.7 mph - N/A   Overcast
6:36 AM 35.6 °F 27.1 °F 33.8 °F 93% 29.32 in 10.0 mi ESE 12.7 mph - N/A   Overcast
6:56 AM 35.6 °F 27.5 °F 33.8 °F 93% 29.32 in 10.0 mi ESE 11.5 mph - N/A   Overcast
7:16 AM 35.6 °F 28.0 °F 33.8 °F 93% 29.32 in 10.0 mi East 10.4 mph - N/A   Overcast
7:36 AM 35.6 °F 27.1 °F 33.8 °F 93% 29.32 in 10.0 mi East 12.7 mph - N/A   Overcast
7:56 AM 35.6 °F 27.1 °F 33.8 °F 93% 29.33 in 10.0 mi ESE 12.7 mph - N/A   Overcast
8:16 AM 35.6 °F 28.0 °F 33.8 °F 93% 29.34 in 10.0 mi East 10.4 mph - N/A   Overcast
8:36 AM 35.6 °F 28.0 °F 33.8 °F 93% 29.34 in 10.0 mi East 10.4 mph - N/A   Overcast
8:56 AM 35.6 °F 29.2 °F 33.8 °F 93% 29.35 in 10.0 mi SE 8.1 mph - N/A   Overcast
9:16 AM 35.6 °F 28.0 °F 33.8 °F 93% 29.36 in 10.0 mi ESE 10.4 mph - N/A   Overcast
9:36 AM 35.6 °F 29.9 °F 33.8 °F 93% 29.36 in 10.0 mi ESE 6.9 mph - N/A   Overcast
9:56 AM 35.6 °F 26.2 °F 33.8 °F 93% 29.36 in 10.0 mi East 15.0 mph - N/A   Overcast
10:16 AM 35.6 °F 27.5 °F 33.8 °F 93% 29.37 in 10.0 mi ESE 11.5 mph - N/A   Overcast
10:36 AM 35.6 °F 27.5 °F 33.8 °F 93% 29.38 in 10.0 mi SE 11.5 mph - N/A   Overcast
10:56 AM 35.6 °F 27.5 °F 33.8 °F 93% 29.38 in 10.0 mi SE 11.5 mph - N/A   Overcast
11:16 AM 35.6 °F 28.6 °F 33.8 °F 93% 29.39 in 10.0 mi SSE 9.2 mph - N/A   Overcast
11:36 AM 35.6 °F 27.5 °F 33.8 °F 93% 29.40 in 10.0 mi SE 11.5 mph - N/A   Overcast
11:56 AM 35.6 °F 26.6 °F 33.8 °F 93% 29.40 in 10.0 mi SE 13.8 mph - N/A   Overcast
12:16 PM 35.6 °F 26.6 °F 33.8 °F 93% 29.41 in 10.0 mi ESE 13.8 mph 19.6 mph N/A   Overcast
12:36 PM 35.6 °F 26.2 °F 33.8 °F 93% 29.41 in 10.0 mi ESE 15.0 mph - N/A   Overcast
12:56 PM 35.6 °F 25.9 °F 33.8 °F 93% 29.41 in 10.0 mi ESE 16.1 mph - N/A   Overcast
1:16 PM 37.4 °F 28.5 °F 33.8 °F 87% 29.41 in 10.0 mi East 15.0 mph - N/A   Overcast
1:36 PM 35.6 °F 25.9 °F 33.8 °F 93% 29.42 in 10.0 mi ESE 16.1 mph 20.7 mph N/A   Overcast
1:56 PM 35.6 °F 26.2 °F 33.8 °F 93% 29.42 in 10.0 mi East 15.0 mph - N/A   Overcast
2:16 PM 37.4 °F 28.5 °F 33.8 °F 87% 29.42 in 10.0 mi East 15.0 mph - N/A   Overcast
2:36 PM 37.4 °F 28.5 °F 33.8 °F 87% 29.42 in 10.0 mi East 15.0 mph - N/A   Overcast
2:56 PM 37.4 °F 28.9 °F 33.8 °F 87% 29.42 in 10.0 mi ESE 13.8 mph 19.6 mph N/A   Scattered Clouds
3:16 PM 37.4 °F 29.8 °F 33.8 °F 87% 29.42 in 10.0 mi ESE 11.5 mph - N/A   Mostly Cloudy
3:36 PM 37.4 °F 27.5 °F 33.8 °F 87% 29.42 in 10.0 mi East 18.4 mph 23.0 mph N/A   Overcast
3:56 PM 37.4 °F 27.2 °F 33.8 °F 87% 29.42 in 10.0 mi East 19.6 mph - N/A   Overcast
4:16 PM 37.4 °F 27.8 °F 33.8 °F 87% 29.43 in 10.0 mi ESE 17.3 mph 23.0 mph N/A   Overcast
4:36 PM 37.4 °F 27.8 °F 33.8 °F 87% 29.43 in 10.0 mi East 17.3 mph 25.3 mph N/A   Overcast
4:56 PM 37.4 °F 28.2 °F 33.8 °F 87% 29.44 in 10.0 mi ESE 16.1 mph - N/A   Overcast
5:16 PM 37.4 °F 28.2 °F 33.8 °F 87% 29.44 in 10.0 mi East 16.1 mph - N/A   Overcast
5:36 PM 37.4 °F 26.9 °F 33.8 °F 87% 29.45 in 10.0 mi East 20.7 mph 27.6 mph N/A   Overcast
5:56 PM 39.2 °F 30.2 °F 35.6 °F 87% 29.45 in 10.0 mi East 17.3 mph - N/A   Overcast
6:16 PM 39.2 °F 29.3 °F 33.8 °F 81% 29.45 in 10.0 mi ESE 20.7 mph 26.5 mph N/A   Overcast
6:36 PM 39.2 °F 29.8 °F 33.8 °F 81% 29.45 in 10.0 mi East 18.4 mph 23.0 mph N/A   Overcast
6:56 PM 39.2 °F 30.2 °F 35.6 °F 87% 29.45 in 10.0 mi East 17.3 mph 26.5 mph N/A   Overcast
7:16 PM 39.2 °F 29.3 °F 33.8 °F 81% 29.45 in 10.0 mi East 20.7 mph 25.3 mph N/A   Overcast
7:36 PM 37.4 °F 27.8 °F 35.6 °F 93% 29.46 in 10.0 mi East 17.3 mph - N/A   Overcast
7:56 PM 37.4 °F 27.5 °F 35.6 °F 93% 29.46 in 10.0 mi East 18.4 mph - N/A   Overcast
8:16 PM 37.4 °F 26.9 °F 35.6 °F 93% 29.46 in 10.0 mi East 20.7 mph 25.3 mph N/A   Overcast
8:36 PM 37.4 °F 26.9 °F 35.6 °F 93% 29.45 in 10.0 mi East 20.7 mph - N/A   Overcast
8:56 PM 39.2 °F 29.6 °F 35.6 °F 87% 29.45 in 10.0 mi East 19.6 mph 25.3 mph N/A   Overcast
9:16 PM 39.2 °F 29.8 °F 35.6 °F 87% 29.45 in 10.0 mi East 18.4 mph 28.8 mph N/A   Overcast
9:36 PM 39.2 °F 29.0 °F 35.6 °F 87% 29.44 in 10.0 mi East 21.9 mph - N/A   Overcast
9:56 PM 39.2 °F 28.5 °F 35.6 °F 87% 29.44 in 10.0 mi East 24.2 mph - N/A   Overcast
10:16 PM 37.4 °F 27.2 °F 35.6 °F 93% 29.45 in 10.0 mi East 19.6 mph 25.3 mph N/A   Overcast
10:36 PM 39.2 °F 29.3 °F 35.6 °F 87% 29.45 in 10.0 mi East 20.7 mph - N/A   Overcast
10:56 PM 39.2 °F 29.6 °F 35.6 °F 87% 29.44 in 10.0 mi East 19.6 mph 28.8 mph N/A   Overcast
11:16 PM 39.2 °F 29.0 °F 35.6 °F 87% 29.44 in 10.0 mi East 21.9 mph 27.6 mph N/A   Overcast
11:36 PM 39.2 °F 29.6 °F 35.6 °F 87% 29.44 in 10.0 mi ESE 19.6 mph 25.3 mph N/A   Overcast
11:56 PM 39.2 °F 29.3 °F 35.6 °F 87% 29.44 in 10.0 mi East 20.7 mph - N/A   Overcast